Regional Weather Roundup
Issued by NWS Grand Forks, ND

Home | Current Version | Previous Version | Graphics & Text | Print | Product List | Glossary On
Versions: 1 2 3 4 5 6 7 8 9 10 11 12 13 14 15 16 17 18 19 20 21 22 23 24 25 26 27 28 29 30 31 32 33 34 35 36 37 38 39 40 41 42 43 44 45 46 47 48 49 50
000
ASUS43 KFGF 031331
RWRFGF
PRAIRIE TO PINES  WEATHER ROUNDUP
NATIONAL WEATHER SERVICE EASTERN NORTH DAKOTA/GRAND FORKS ND
700 AM CST SAT DEC 03 2016

 **SATELLITE DATA USED TO AUGMENT SKY COVER AT AUTOMATED STATIONS**
 *****  WEATHER ACROSS EASTERN NORTH DAKOTA  *****

CITY           SKY/WX    TMP DP  RH WIND       PRES   REMARKS
GRAND FORKS    MOCLDY    26  20  77 S9        30.18F WCI  17
GRAND FRKS AFB CLOUDY    27  19  74 S12       30.17F WCI  16
GRAND FRKS NWS   N/A     27 N/A N/A S13         N/A  WCI  16
DEVILS LAKE    FLURRIES  27  25  92 S15       30.08F WCI  15
FARGO          CLOUDY    27  19  72 SE8       30.22F WCI  19
WAHPETON ARPT  CLOUDY    27  19  74 S9        30.25S WCI  17
$$

 ***** WEATHER ACROSS CENTRAL AND WESTERN NORTH DAKOTA  *****

CITY           SKY/WX    TMP DP  RH WIND       PRES   REMARKS
BISMARCK       CLOUDY    26  26 100 SE12      30.01F FOG     WCI  16
MINOT          CLEAR     24  21  88 SE7       29.92F WCI  16
JAMESTOWN      CLOUDY    27  24  89 S13       30.11F WCI  16
MINOT AFB      CLEAR     22  19  88 SE13      29.92F WCI  10
GARRISON         N/A     23  21  92 SE6       29.95F WCI  16
WILLISTON      CLEAR     22  17  81 S5        29.85F WCI  16
DICKINSON      CLEAR     17  14  88 S8        29.88F WCI   7
HETTINGER      CLEAR     18  15  88 SE5       29.92F WCI  11
$$

 *****  OTHER AIRPORT OBSERVATIONS IN OUR AREA  *****

CITY           SKY/WX    TMP DP  RH WIND       PRES   REMARKS
WALHALLA         N/A     27  27 100 S13       30.11F WCI  16
GRAFTON AIRPOR CLOUDY    27  23  86 S14G22    30.18F WCI  15
VALLEY CITY AR CLOUDY    27  27 100 S10       30.16F WCI  17
CANDO          CLOUDY    27  27 100 S17       30.07S WCI  14
CAVALIER APRT    N/A     27  23  86 S20       30.13S WCI  13
GWINNER        CLOUDY    30  27  86 SE12      30.18F WCI  21
SHEYENNE NWR     N/A     26  21  81 S7        29.95S WCI  18
ROLLA          CLOUDY    25  25 100 S13       30.02S WCI  13
 ***** THE ABOVE OBSERVATIONS ARE NON NWS ARE NOT QUALITY
       CONTROLLED AND MAY MIS-REPORT RAIN FOR SNOW...
$$

  *****  WEATHER ACROSS NORTHERN MINNESOTA  *****

CITY           SKY/WX    TMP DP  RH WIND       PRES   REMARKS
FLAG ISLAND    CLOUDY    28  21  74 S6        30.18S WCI  22
WARROAD        CLOUDY    27  21  80 S5        30.20S WCI  21
ROSEAU         CLOUDY    28  21  74 S12       30.18F WCI  18
HALLOCK        CLOUDY    28  25  86 S16       30.16F WCI  17
THF RVR FALLS  CLOUDY    24  19  81 S13       30.21S WCI  12
BAUDETTE       CLOUDY    25  21  85 S7        30.21R WCI  17
WASKISH        CLOUDY    25  21  86 S6        30.22S WCI  18
CROOKSTON      CLOUDY    27  21  80 S14       30.22S WCI  15
STEPHEN NDAWN    N/A     27  21  80 S14         N/A  WCI  15
GREENBUSH NDAW   N/A     27  21  80 S14         N/A  WCI  15
$$
  *****  WEATHER ACROSS CENTRAL AND WEST MINNESOTA  *****

CITY           SKY/WX    TMP DP  RH WIND       PRES   REMARKS
FOSSTON        CLOUDY    21  18  86 S10       30.21F WCI  10
BEMIDJI        CLOUDY    23  18  81 S7        30.21S WCI  15
PARK RAPIDS    CLOUDY    24  15  68 S6        30.21F WCI  17
ELBOW LAKE     CLOUDY    24  19  80 CALM      30.25F
WADENA         CLOUDY    23  18  80 S6        30.23S WCI  16
DETROIT LAKES  CLOUDY    25  21  86 S9        30.22S WCI  15
MOORHEAD       CLOUDY    27  19  74 S9        30.23F WCI  17
FERGUS FALLS   CLOUDY    25  18  74 SW10      30.28S WCI  15
MORRIS MN      CLOUDY    27  19  74 S10       30.25F WCI  17
STAPLES        CLOUDY    23  18  80 S5        30.25S WCI  17
$$
  *****  WEATHER ELSEWHERE ACROSS MINNESOTA  *****

CITY           SKY/WX    TMP DP  RH WIND       PRES   REMARKS
DULUTH         CLOUDY    26  23  88 W7        30.24R WCI  18
INTRNTL FALLS  CLOUDY    24  19  81 CALM      30.23R
ELY            CLOUDY    23  21  93 CALM      30.23S
CLOQUET        CLOUDY    27  21  80 CALM      30.25S
WHEATON        CLOUDY   N/A N/A N/A SE8       30.26F
BRAINERD       CLOUDY    25  19  78 SW7       30.26S WCI  17
HIBBING        CLOUDY    23  19  85 CALM      30.24S
ALEXANDRIA     CLOUDY    24  19  81 S10       30.25F WCI  14
SAINT CLOUD    CLOUDY    27  21  78 SW8       30.28R WCI  19
MINNEAPOLIS    CLOUDY    29  20  69 SW6       30.31S WCI  23
$$

  *****  WEATHER ACROSS SOUTH DAKOTA  *****

CITY           SKY/WX    TMP DP  RH WIND       PRES   REMARKS
SIOUX FALLS    PTCLDY    28  26  92 SE6       30.22F WCI  22
BROOKINGS      CLEAR     24  21  88 SE8       30.20F WCI  15
WATERTOWN      CLOUDY    23  21  92 SE7       30.18F WCI  15
HURON          CLEAR     25  24  96 SE9       30.17F WCI  15
SISSETON         N/A     23  19  85 S6        30.22F WCI  16
ABERDEEN       CLEAR     24  21  88 SE8       30.17F WCI  15
MITCHELL       CLEAR     26  25  96 SE9       30.18F WCI  17
PIERRE         CLOUDY    24  22  91 SE9       30.06F WCI  14
MOBRIDGE       CLOUDY    25  22  88 S18       30.02F WCI  11
RAPID CITY     CLEAR     19  15  84 CALM      29.92F
$$

  *****  SOME WEATHER IN NEARBY STATES *****

CITY           SKY/WX    TMP DP  RH WIND       PRES   REMARKS
GLASGOW MT     CLOUDY    28  26  92 S8        29.77F WCI  20
GREAT FALLS MT CLEAR     31  21  66 SW17      29.82S WCI  19
CHEYENNE WY    CLOUDY    18   6  59 W16       29.96F WCI   3
SCOTTSBLUFF NE CLEAR     17  13  84 E5        30.02F WCI  10
OMAHA NE       FOG       24  20  84 NW5       30.29F VSB 1   WCI  18
DES MOINES IA  CLOUDY    37  27  67 CALM      30.33F
DAVENPORT IA   CLOUDY    32  25  75 NW13      30.37S WCI  22
CHICAGO IL     CLOUDY    32  22  66 W9        30.35R WCI  24
EAU CLAIRE WI  CLOUDY    29  24  82 SW7       30.30R WCI  22
LA CROSSE WI   CLOUDY    32  21  64 NW5       30.33F
$$

  *****  SOME NATIONAL WEATHER *****

CITY           SKY/WX    TMP DP  RH WIND       PRES   REMARKS
LA GUARDIA NY  PTCLDY    44  28  53 NW21      30.01R
RALEIGH NC     PTCLDY    36  29  75 CALM      30.26R
ATLANTA GA     CLOUDY    43  33  68 NW7       30.26S
NEW ORLEANS LA CLOUDY    57  49  74 E13       30.12R
OKLAHOMA CITY  LGT RAIN  45  44  97 NE7       30.17F
ALBUQUERQUE NM FLURRIES  33  30  88 NW6       30.09R
SALT LAKE CITY MOCLDY    27  19  72 SE6       30.25F WCI  20
LOS ANGELES CA CLEAR     48  20  32 NE5       30.10R
BOISE ID       CLOUDY    35  25  66 SE3       30.23S
SEATTLE WA     MOCLDY    45  42  89 SW8       30.25R
$$

*** WEATHER ACROSS MANITOBA...SASKATCHEWAN AND ONTARIO ***
                ***ONTARIO***

CITY           SKY/WX    TMP DP  RH WIND       PRES   REMARKS
GERALDTON      FRZ DRZL  21  21 100 CALM      30.22R
THUNDER BAY    MOCLDY    27  25  93 SW3       30.25S
SIOUX LOOKOUT  FLURRIES  21  18  86 SW5       30.20S WCI  15
TORONTO        MOCLDY    36  30  80 W8        30.15R
BIG TROUT LK   FLURRIES   9   7  92 SW8       30.25S WCI  -4
PICKLE LAKE    FLURRIES  18  16  93 SE3       30.21S
DRYDEN         CLOUDY    19  18  93 S5        30.19F WCI  13
KENORA         FLURRIES  21  19  93 SE3       30.17S
$$
                *** MANITOBA***

CITY           SKY/WX    TMP DP  RH WIND       PRES   REMARKS
BRANDON        CLOUDY    25  23  93 SE7       29.97F WCI  17
DAUPHIN        CLOUDY    28  25  86 E3        29.94F
ISLAND LAKE    NOT AVBL
PILOT MOUND      N/A     25  25 100 S20         N/A  WCI  11
THE PAS        FLURRIES  28  25  86 SE10      29.92F WCI  19
THOMPSON       CLOUDY    16  14  93 VRB2      30.07S
WINNIPEG       FLURRIES  28  25  86 S15       30.12S WCI  17
LYNN LAKE      CLOUDY    21  21 100 SE8       29.92F WCI  12
CHURCHILL      CLEAR      0  -2  92 SW9       30.12F WCI -16
GILLAM         FLURRIES   5   1  85 S7        30.16F WCI  -7
$$
                ***SASKATCHEWAN***

CITY           SKY/WX    TMP DP  RH WIND       PRES   REMARKS
ESTEVAN        PTCLDY    18  14  86 S10       29.82F WCI   6
KINDERSLEY     PTCLDY    18  16  93 N7        29.63R WCI   8
LLOYDMINSTER   CLOUDY    21  21 100 VRB2      29.67R FOG
PRINCE ALBERT  CLOUDY    27  23  86 E9        29.74S WCI  17
REGINA         CLOUDY    18  16  93 SE13      29.72F WCI   4
YORKTON        CLOUDY    27  27 100 SE15G21   29.81F FOG     WCI  15
N. BATTLEFORD  CLOUDY    25  25 100 E9        29.69F WCI  15
LA RONGE       FLURRIES  28  25  86 SE10      29.78F WCI  19
SASKATOON      CLOUDY    23  21  93 E8        29.68F FOG     WCI  14
SWIFT CURRENT  CLOUDY    32  28  86 SW14G20   29.59F WCI  22
$$
NOTE: THESE ARE AUTOMATED STATIONS WITH LIMITED QUALITY CONTROL
      "FAIR" INDICATES FEW OR NO CLOUDS BELOW 12,000 FEET WITH NO
      SIGNIFICANT WEATHER AND/OR OBSTRUCTIONS TO VISIBILITY.
      SKY/WX - SKY CONDITION AND SIGNIFICANT WEATHER.
      TMP - AIR TEMPERATURE.    DP   - DEWPOINT TEMPERATURE.
      RH  - RELATIVE HUMIDITY.  PRES - PRESSURE.
      HX  - HEAT INDEX.         WCI  - WIND CHILL INDEX.
$




USA.gov is the U.S. government's official web portal to all federal, state and local government web resources and services.